STARLINK-32118 (60280 NORAD) Tracking and Keplerian Element Data

This shows tracking and keplerian element data for the satellite.

Feedback or suggestion? Click here.




ElementValue
Catalog60280
NameSTARLINK-32118
Epoch Orbit1295
Epoch Day286.25704346
Epoch Year2024
RAAN277.1289
Inclination53.1606
Eccentricity0.0001603
Argument of Perigee98.509
Mean Anonmoly261.6093
Mean Motion15.30186366
Decay Rate-2.205E-05
L11 60280U 24132C 24286.25704346 -.00002205 00000+0 -62350-4 0 9991
L22 60280 53.1606 277.1289 0001603 98.5090 261.6093 15.30186366 12959



Live tracking and technical data element details for STARLINK-32118 (NORAD 60280). STARLINK-32118 can be tracked NOW for your location showing map with azimuth and elevation plus other details from your city location.







IsCatalogInMostPopularTable: catalog: 60280, numindb: 10
Update: records affected: 1



GetName: 60280 STARLINK-32118

Hit Count: updated at: Thu, 23 Jan 2025 14:55:58 GMT